Hourly Data Report for January 01, 2022

OTTAWA INTL A
ONTARIO
Current Station Operator: NAVCAN

45°19'00.000" N
75°40'00.000" W
114.90 m
6106001
71628
YOW

Download Data

Hourly Data (January 2022)
Hourly Data Report for January 1, 2022
TIME
LST
Temp Definition
°C
Dew Point Definition
°C
Rel Hum Definition
%
Precip. Amount Definition
mm

Wind Dir Definition
10's deg

Wind Spd Definition
km/h
Visibility Definition
km
Stn Press Definition
kPa
Hmdx Definition


Wind Chill Definition


Weather Definition


00:00 -1.6 -1.9 98   8 8 0.6 99.69   -5 Freezing Fog
01:00 -1.8 -2.0 99   5 12 0.4 99.60   -6 Freezing Fog
02:00 -1.8 -1.9 99   6 9 0.2 99.63   -5 Freezing Fog
03:00 -1.9 -2.0 99   7 12 0.4 99.55   -6 Freezing Fog
04:00 -1.8 -1.9 99   5 11 0.6 99.53   -6 Freezing Fog
05:00 -1.7 -1.8 99   7 13 0.6 99.38   -6 Freezing Fog
06:00 -1.5 -1.6 99   7 7 0.6 99.37   -4 Freezing Fog
07:00 -1.4 -1.5 99   8 12 0.4 99.18   -5 Freezing Fog
08:00 -1.2 -1.3 99   3 8 1.2 99.25   -4 Fog
09:00 -1.0 -1.2 99   4 9 1.2 99.30   -4 Fog
10:00 -0.8 -0.9 99   32 13 1.2 99.40   -5 Fog
11:00 -0.4 -0.5 99   29 5 1.2 99.33   -2 Fog
12:00 0.2 0.1 99   32 16 0.4 99.30     Fog
13:00 0.8 0.7 99   34 11 3.2 99.26     Fog
14:00 0.8 0.4 98   27 7 6.4 99.27     Fog
15:00 1.2 -0.1 91   32 18 16.1 99.34     LegendNANA
16:00 1.2 -0.6 88   33 18 19.3 99.42     Cloudy
17:00 -0.3 -2.1 88   33 26 24.1 99.45   -6 LegendNANA
18:00 -1.7 -4.3 82   32 26 24.1 99.55   -8 LegendNANA
19:00 -2.3 -5.2 80   33 20 24.1 99.59   -8 Cloudy
20:00 -2.5 -6.2 76   34 22 24.1 99.67   -9 LegendNANA
21:00 -3.0 -6.9 75   33 18 24.1 99.67   -9 LegendNANA
22:00 -4.3 -7.7 78   33 26 24.1 99.61   -12 Cloudy
23:00 -5.5 -8.9 77   34 22 24.1 99.58   -13 LegendNANA

Notes on Data Quality.

Legend

  • E = Estimated
  • M = Missing
  • NA = Not Available*
  • [empty] = Indicates an unobserved value
Date modified: